Weather History for Selinsgrove, PA

Change the Weather History Date:

Friday, March 28, 2014

  Actual Average (KIPT) Record (KIPT)
Temperature  
Mean Temperature 48 °F 43 °F  
Max Temperature 60 °F 53 °F 83 °F (1945)
Min Temperature 35 °F 33 °F 16 °F (1982)
Degree Days  
Heating Degree Days 18 22  
Month to date heating degree days 765  
Since 1 July heating degree days 5232  
Cooling Degree Days 0 0  
Month to date cooling degree days 0  
Year to date cooling degree days 0  
Moisture  
Dew Point 40 °F    
Average Humidity 82    
Maximum Humidity 100    
Minimum Humidity 53    
Precipitation  
Precipitation 0.30 in 0.11 in 1.90 in (1932)
Month to date precipitation 2.64  
Year to date precipitation 7.68  
Snow  
Snow 0.00 in - - ()
Month to date snowfall  
Since 1 July snowfall  
Snow Depth -    
Sea Level Pressure  
Sea Level Pressure 30.02 in    
Wind  
Wind Speed 4 mph (SW)    
Max Wind Speed 14 mph    
Max Gust Speed 21 mph    
Visibility 6 miles    
Events Fog , Rain    
T = Trace of Precipitation, MM = Missing Value Source: NWS Daily Summary

Daily Weather History Graph

Daily Weather History Graph

Search for Another Location

Airport:

Trip Planner

Search our weather history database for the weather conditions in past years. The results will help you decide how hot, cold, wet, or windy it might be!

Date:

Astronomy

Mar. 28, 2014 Rise Set
Actual Time 6:57 AM EDT 7:28 PM EDT
Civil Twilight 6:30 AM EDT 7:55 PM EDT
Nautical Twilight 5:57 AM EDT 8:28 PM EDT
Astronomical Twilight 5:24 AM EDT 9:01 PM EDT
Moon 5:27 AM EDT (3/28) 5:21 PM EDT (3/28)
Length of Visible Light 13h 25m
Length of Day
12h 30m
Waning Crescent, 6% of the Moon is Illuminated
Mar 28
Waning Crescent
Mar 30
New
Apr 7
First Quarter
Apr 15
Full
Apr 22
Last Quarter

Hourly Weather History & Observations

Time (EDT) Temp. Windchill Dew Point Humidity Pressure Visibility Wind Dir Wind Speed Gust Speed Precip Events Conditions
12:53 AM 35.1 °F - 21.0 °F 57% 30.13 in 10.0 mi Calm Calm - N/A   Clear
1:53 AM 39.0 °F 34.0 °F 23.0 °F 53% 30.08 in 10.0 mi South 6.9 mph - N/A   Mostly Cloudy
2:53 AM 37.9 °F 34.4 °F 23.0 °F 55% 30.08 in 10.0 mi West 4.6 mph - N/A   Mostly Cloudy
3:53 AM 37.9 °F 34.4 °F 24.1 °F 57% 30.07 in 10.0 mi West 4.6 mph - N/A   Overcast
4:53 AM 36.0 °F 33.3 °F 30.0 °F 79% 30.06 in 10.0 mi South 3.5 mph - 0.02 in Rain Light Rain
5:53 AM 37.0 °F 34.5 °F 30.9 °F 79% 30.06 in 4.0 mi WSW 3.5 mph - 0.04 in Rain Rain
6:04 AM 36.0 °F - 32.0 °F 86% 30.05 in 2.5 mi Calm Calm - 0.04 in Rain Rain
6:12 AM 36.0 °F - 33.1 °F 89% 30.04 in 4.0 mi Calm Calm - 0.06 in Rain Rain
6:53 AM 36.0 °F - 33.1 °F 89% 30.06 in 4.0 mi Calm Calm - 0.09 in Rain Light Rain
7:53 AM 36.0 °F - 33.1 °F 89% 30.06 in 4.0 mi Calm Calm - 0.03 in Rain Light Rain
8:53 AM 37.0 °F 33.3 °F 33.1 °F 86% 30.05 in 7.0 mi SSW 4.6 mph - 0.00 in   Overcast
9:53 AM 39.0 °F 34.8 °F 35.1 °F 86% 30.03 in 4.0 mi South 5.8 mph - 0.04 in Rain Light Rain
10:53 AM 41.0 °F 39.0 °F 37.9 °F 89% 30.00 in 6.0 mi Variable 3.5 mph - 0.03 in   Overcast
11:41 AM 46.0 °F 41.0 °F 41.0 °F 83% 29.97 in 9.0 mi South 10.4 mph - N/A   Mostly Cloudy
11:53 AM 46.0 °F 41.0 °F 41.0 °F 83% 29.99 in 9.0 mi SSW 10.4 mph 16.1 mph N/A   Overcast
12:09 PM 45.0 °F 43.5 °F 41.0 °F 86% 29.98 in 8.0 mi WSW 3.5 mph - N/A   Overcast
12:53 PM 46.0 °F 41.9 °F 42.1 °F 86% 29.97 in 7.0 mi SW 8.1 mph - N/A   Overcast
1:53 PM 48.9 °F - 44.1 °F 83% 29.96 in 8.0 mi SSW 10.4 mph 19.6 mph N/A   Overcast
2:04 PM 48.9 °F - 44.1 °F 83% 29.94 in 8.0 mi Variable 5.8 mph 17.3 mph N/A   Overcast
2:53 PM 54.0 °F - 46.0 °F 75% 29.93 in 9.0 mi South 11.5 mph - N/A   Mostly Cloudy
3:31 PM 57.0 °F - 46.9 °F 69% 29.92 in 10.0 mi South 13.8 mph 19.6 mph N/A   Mostly Cloudy
3:53 PM 57.0 °F - 46.9 °F 69% 29.92 in 10.0 mi South 9.2 mph - N/A   Overcast
4:53 PM 59.0 °F - 48.0 °F 67% 29.91 in 10.0 mi South 11.5 mph - N/A   Mostly Cloudy
5:53 PM 60.1 °F - 48.0 °F 64% 29.92 in 10.0 mi South 12.7 mph 20.7 mph N/A   Mostly Cloudy
6:53 PM 55.9 °F - 48.9 °F 77% 29.97 in 7.0 mi Variable 5.8 mph 18.4 mph 0.00 in Rain Light Rain
7:09 PM 55.9 °F - 50.0 °F 80% 30.00 in 1.8 mi Variable 3.5 mph - 0.03 in Rain Heavy Rain
7:18 PM 55.0 °F - 51.1 °F 86% 30.00 in 3.0 mi Variable 3.5 mph - 0.04 in Rain Light Rain
7:53 PM 54.0 °F - 51.1 °F 90% 30.01 in 7.0 mi Calm Calm - 0.05 in   Overcast
8:53 PM 50.0 °F - 48.9 °F 96% 30.03 in 4.0 mi Calm Calm - N/A   Clear
8:58 PM 48.9 °F - 48.0 °F 97% 30.02 in 1.5 mi Calm Calm - N/A   Clear
9:03 PM 48.9 °F - 48.0 °F 97% 30.02 in 0.8 mi Calm Calm - N/A   Clear
9:14 PM 44.1 °F - 44.1 °F 100% 30.03 in 0.2 mi Calm Calm - N/A Fog Fog
9:53 PM 44.1 °F 42.5 °F 43.0 °F 96% 30.06 in 0.2 mi SSE 3.5 mph - N/A Fog Fog
10:53 PM 42.1 °F 40.2 °F 41.0 °F 96% 30.10 in 0.2 mi WNW 3.5 mph - N/A Fog Fog
11:17 PM 41.0 °F 37.1 °F 39.9 °F 96% 30.11 in 1.2 mi NNW 5.8 mph - N/A   Partly Cloudy
11:22 PM 41.0 °F 37.1 °F 39.9 °F 96% 30.11 in 3.0 mi NNW 5.8 mph - N/A   Clear
11:53 PM 42.1 °F 36.6 °F 39.9 °F 92% 30.14 in 10.0 mi NNW 9.2 mph - N/A   Clear